Location: Halfweg
(53.1000°N, 6.6000°E)
Time: 19:22:03
(UTC+00:00)

Cosmos 2297 Rocket - Pass Details

Date: 15 May 2026
Orbit: 838 x 842 km, 71.0° (Epoch: 7 June)

Event Time Altitude Azimuth Distance (km) Brightness Sun altitude
Exits shadow 23:28:06 30° 191° (S) 1,457 2.9 -17.8°
Maximum altitude 23:30:53 69° 116° (ESE) 902 2.2 -17.8°
Drops below altitude 10° 23:36:30 10° 35° (NE) 2,467 5.5 -17.8°
Sets 23:38:58 0° 33° (NNE) 3,407 6.4 -17.8°
